User: anonymous   Login
Location: Unspecified
(0.0000°N, 0.0000°E)
Time: 00:05:26
(UTC+00:00)
Language:

STARLINK-32566 - Orbit

View from above orbital plane
View from above orbital plane
View from above satellite
View from above satellite

Ground track
Ground track

The orbit is defined by the following mean orbital elements,

1 61958U          26145.29210795 +.00000000 +00000-0 +38522-3 0 00008
2 61958  53.1591 143.8556 0001294  91.2765 268.8389 15.42176468    01
Epoch (UTC): 25 May 2026 07:00:38
Eccentricity: 0.0001294
inclination: 53.1591°
perigee height: 439 km
apogee height: 441 km
right ascension of ascending node: 143.8556°
argument of perigee: 91.2765°
revolutions per day: 15.42176468
mean anomaly at epoch: 268.8389°

The dashed part of the orbit path shows where the satellite is in the earth's shadow,  

DLR